Location: Hutka
(50.8875°N, 18.8412°E)
Time: 05:46:40
(UTC+00:00)

Daily predictions for brighter satellites

Satellite Brightness Start Highest point End
(mag) Time Altitude Azimuth Time Altitude Azimuth Time Altitude Azimuth
Cosmos 1992 Rocket 3.8 00:05:01 71° S 00:05:35 84° ESE 00:10:50 10° NNE
Cosmos 1726 Rocket 3.6 00:07:11 69° NW 00:07:11 69° NW 00:11:07 10° N
PSLV R/B 4.1 00:05:09 10° NNE 00:08:26 63° N 00:08:26 63° N
Meteor 1-26 Rocket 4.2 00:09:29 56° SSE 00:10:30 71° E 00:15:54 10° NNE
Cosmos 1536 3.2 00:09:07 10° N 00:12:17 55° NE 00:12:17 55° NE
ATLAS 2AS CENTAUR R/B 3.4 00:09:45 22° W 00:13:57 48° NNW 00:20:32 10° NE
IDEFIX/ARIANE 42P 3.1 00:10:19 10° NNE 00:15:23 51° E 00:16:41 41° SE
Cosmos 1953 Rocket 3.9 00:18:20 10° NNW 00:22:18 51° WNW 00:22:18 51° WNW
USA 234 3.6 00:18:40 10° E 00:25:08 66° NNE 00:31:38 10° WNW
Cosmos 1980 Rocket 3.5 00:20:34 10° NW 00:24:20 25° W 00:24:20 25° W
Cosmos 1766 4.2 00:22:18 10° NNW 00:24:17 34° NNW 00:24:17 34° NNW
Cosmos 1707 3.7 00:31:24 33° N 00:31:24 33° N 00:33:08 10° N
Cosmos 44 Rocket 3.3 00:29:47 62° SSW 00:30:38 80° SE 00:35:50 10° NE
ADEOS II 4.5 00:27:50 10° NE 00:30:51 15° E 00:33:51 10° ESE
COSMOS 2406 3.3 00:32:29 47° S 00:34:07 71° ESE 00:39:51 10° NNE
MSX 3.9 00:28:56 10° NNE 00:34:42 73° ESE 00:36:45 41° S
Cosmos 1975 3.6 00:32:01 10° N 00:35:31 42° ENE 00:36:20 36° ESE
Cosmos 2369 4.2 00:31:29 10° NW 00:36:37 38° WSW 00:36:37 38° WSW
ADEOS Rocket 4.0 00:29:35 10° NNE 00:37:03 58° E 00:41:54 24° S
SL-08 ROCKET BODY 4.3 00:31:47 10° NNW 00:37:47 78° W 00:40:00 41° S
Cosmos 1634 Rocket 4.0 00:35:56 45° SW 00:37:51 70° WNW 00:44:02 10° N
ALOS 4.4 00:35:07 10° NE 00:38:22 19° E 00:41:29 10° SE
CZ-2D R/B 4.0 00:35:07 10° NE 00:39:18 23° E 00:43:17 11° SE
Cosmos 724 4.3 00:44:49 42° SW 00:46:59 79° NW 00:52:58 10° NE
Cosmos 2084 4.4 00:46:23 32° WNW 00:47:29 39° NNW 00:51:24 10° NE
Cosmos 1607 3.9 00:47:22 42° SW 00:49:40 90° SE 00:55:58 10° NE
Cosmos 1354 Rocket 4.4 00:46:42 10° NNW 00:51:58 65° ENE 00:57:11 10° SE
Cosmos-2242 3.4 00:52:12 45° W 00:52:28 45° WNW 00:56:31 10° N
Cosmos 2360 Rocket 2.3 00:47:06 10° NNW 00:52:48 75° ENE 00:58:28 10° SE
Cosmos 1503 Rocket 3.9 00:48:07 10° NNW 00:53:26 89° ENE 00:56:50 22° SSE
Cosmos 2333 Rocket 2.1 00:48:10 10° NNW 00:53:49 71° WSW 00:57:05 26° SSE
FENGYUN 3A 3.7 00:49:01 10° NNE 00:54:29 79° ESE 00:56:43 37° S
USA 281 3.2 00:51:27 30° S 00:54:48 60° WSW 01:01:19 10° NNW
Cosmos 220 Rocket 3.8 00:56:20 59° S 00:56:57 73° ESE 01:00:59 10° NNE
Cosmos 2082 Rocket 2.9 00:59:24 30° WSW 01:01:45 45° NW 01:07:16 10° NNE
Cosmos 1842 2.8 01:02:44 69° NW 01:02:44 69° NW 01:05:41 10° N
Cosmos 540 Rocket 4.1 01:01:37 27° SSE 01:04:05 48° ESE 01:09:01 10° NNE
Meteor 2-2 Rocket 4.5 01:02:52 37° SW 01:04:46 54° WNW 01:10:19 10° N
Cosmos 2279 Rocket 4.1 01:03:59 35° SW 01:06:35 62° WNW 01:12:48 10° N
Meteor 2-9 Rocket 4.0 01:02:09 10° NNW 01:07:30 78° W 01:10:19 28° S
Cosmos 2278 3.7 01:01:54 10° NW 01:07:34 62° WSW 01:11:11 22° S
NPP 3.6 01:02:12 10° NNE 01:07:38 81° WNW 01:09:56 36° SSW
DNEPR-1 R/B 4.5 01:02:57 10° NW 01:08:06 69° NE 01:14:24 10° SE
Cosmos 2322 Rocket 2.1 01:02:26 10° NNW 01:08:06 82° WSW 01:13:46 10° SSE
Cosmos 1486 Rocket 4.2 01:03:06 10° NNW 01:08:07 50° WSW 01:09:36 38° SSW
Resurs 1-4 Rocket 3.0 01:03:24 10° NNE 01:08:28 43° E 01:12:17 17° SSE
Cosmos 2221 2.3 01:07:41 47° S 01:08:49 85° E 01:12:59 10° NNE
USA 305 4.1 01:16:13 18° NE 01:16:13 18° NE 01:16:48 10° NE
ACS3 Solar Sail 2.6 01:10:31 10° N 01:15:56 36° WNW 01:18:33 25° WSW
NOSS 3-3 (A) 3.7 01:14:12 35° SW 01:16:36 89° NW 01:23:00 10° NE
Cosmos 1777 Rocket 4.2 01:13:43 10° NW 01:18:45 47° WSW 01:20:41 32° SSW
Cosmos 2219 Rocket 2.3 01:16:27 10° NNW 01:22:07 78° ENE 01:27:46 10° SSE
SL-16 R/B 2.6 01:17:42 10° NW 01:22:57 39° WSW 01:24:53 30° SSW
H-2A R/B 3.2 01:18:17 10° NNE 01:23:07 40° E 01:27:58 10° SSE
Meteor 1-11 Rocket 3.7 01:17:57 10° NNW 01:23:54 85° W 01:29:12 13° S
CZ-4C R/B 2.8 01:22:06 22° W 01:24:44 42° NNW 01:30:21 10° NE
Meteor 1-19 Rocket 4.1 01:22:10 27° SSW 01:25:13 88° W 01:30:52 10° NNE
Cosmos 1271 Rocket 2.4 01:27:38 50° SW 01:28:21 68° WNW 01:31:50 10° N
NOAA 11 4.1 01:23:23 10° NNE 01:28:49 86° WNW 01:32:03 26° SSW
Meteor 1-14 Rocket 4.5 01:24:10 10° NNW 01:29:42 50° W 01:32:37 26° SSW
USA 267 3.5 01:23:29 10° ENE 01:29:59 60° SE 01:34:01 24° SSW
SL-4 R/B 2.2 01:31:34 41° SSW 01:31:37 41° SSW 01:35:12 10° SE
Meteor 1-10 Rocket 4.2 01:29:04 23° S 01:32:48 89° E 01:38:38 10° NNE
Cosmos 2058 Rocket 4.5 01:32:04 22° W 01:33:09 24° WNW 01:36:45 10° NNW
NOSS 3-3 (C) 3.7 01:30:27 29° SW 01:33:22 83° NW 01:39:52 10° NE
Cosmos 2266 Rocket 4.1 01:29:16 10° NNW 01:35:13 54° W 01:39:09 21° SSW
Cosmos 1470 3.5 01:33:43 10° NNW 01:36:16 27° W 01:36:16 27° W
Gbstr 26 Del rocket 2.9 01:37:23 35° WSW 01:38:18 43° SSW 01:41:51 10° SE
USA 290 2.5 01:37:48 35° S 01:38:53 59° ESE 01:42:01 10° NNE
Cosmos 2333 4.3 01:43:01 10° NW 01:48:33 55° WSW 01:54:06 10° S
Cosmos 372 Rocket 4.0 01:43:22 10° NNW 01:48:36 83° ENE 01:53:44 10° SSE
DMSP B5D2-2 4.2 01:45:23 16° S 01:49:22 53° W 01:54:28 10° NNW
Cosmos 1655 Rocket 3.9 01:44:11 10° NNW 01:50:26 80° W 01:56:39 10° S
Cosmos 1812 Rocket 3.9 01:49:34 27° SW 01:51:36 47° WNW 01:55:49 10° N
NOSS 3-4 (A) 3.7 01:47:10 10° NW 01:53:49 73° SW 02:01:39 10° SSE
Meteor 2-20 Rocket 4.4 01:49:02 15° SSW 01:54:17 84° W 02:00:15 10° N
NOSS 3-4 (C) 3.8 01:47:42 10° NW 01:54:22 74° SW 02:02:14 10° SSE
IDEFIX/ARIANE 42P 3.7 01:50:12 10° N 01:54:36 29° WNW 01:57:22 18° WSW
Envisat 3.0 01:52:31 10° N 01:57:35 72° WNW 02:01:23 18° SSW
Meteor 2-4 Rocket 3.8 01:52:18 10° S 01:57:38 70° E 02:02:58 10° NNE
ISS -1.6 01:56:14 14° S 01:57:43 18° SE 02:00:04 10° E
Aureole 1 Rocket 3.1 01:55:47 10° NNW 01:59:50 61° WSW 02:04:55 10° S
JB-3 4.0 01:56:35 10° SSE 02:00:11 88° WSW 02:03:49 10° NNW
Cosmos 2084 Rocket 3.9 02:00:03 10° WNW 02:03:56 36° SW 02:07:50 10° SSE
Iridium 4 Rocket 3.7 02:03:00 19° SW 02:06:03 46° W 02:11:00 10° N
Cosmos 1461 3.8 02:03:16 13° S 02:06:08 34° ESE 02:09:33 10° NE
ATLAS 2AS CENTAUR R/B 4.3 02:00:36 10° WNW 02:06:26 28° N 02:12:12 10° NE
USA 234 3.2 02:01:46 10° SE 02:08:14 63° SW 02:14:44 10° WNW
H-2A R/B 2.7 02:06:25 19° SSW 02:08:32 36° W 02:11:54 10° NNW
Meteor 1-27 Rocket 3.8 02:03:31 13° SSW 02:08:49 75° WNW 02:14:47 10° N
Cosmos 1975 4.3 02:07:48 10° NW 02:10:11 17° W 02:10:35 16° W
ADEOS II 2.1 02:05:52 10° NNE 02:11:09 90° SSW 02:16:23 10° SSW
Cosmos 1842 Rocket 3.7 02:09:35 10° S 02:13:52 71° E 02:18:10 10° NNE
Cosmos 2297 Rocket 4.5 02:11:27 10° SSE 02:15:32 21° E 02:19:37 10° NE
ALOS 2.3 02:11:11 10° N 02:15:41 60° WNW 02:19:31 14° SSW
Cosmos 1238 Rocket 2.3 02:15:06 22° SW 02:16:41 47° WNW 02:19:39 10° N
Cosmos 1763 Rocket 4.0 02:13:16 17° SW 02:17:04 45° WNW 02:22:10 10° NNE
CZ-2D R/B 2.2 02:14:28 10° N 02:19:40 61° WNW 02:24:33 12° SSW
SL-16 R/B 2.7 02:14:39 10° SSE 02:20:55 80° ENE 02:27:13 10° NNW
COSMOS 2428 2.9 02:15:24 10° NNW 02:21:09 77° ENE 02:26:51 10° SE
ADEOS Rocket 4.2 02:15:21 10° N 02:22:16 42° WNW 02:28:49 12° SW
Cosmos 841 Rocket 3.8 02:19:14 10° S 02:24:19 65° ESE 02:29:28 10° NNE
Sich 1 3.0 02:21:09 10° N 02:25:20 84° ENE 02:29:29 10° SSE
Okean 3 Rocket 3.7 02:21:03 10° N 02:25:31 81° E 02:30:00 10° SSE
Cosmos 1758 3.8 02:25:25 10° N 02:29:02 57° ENE 02:32:36 10° SSE
Cosmos 1898 Rocket 3.5 02:24:30 10° NNW 02:29:37 62° WSW 02:34:42 10° S
Cosmos 1937 Rocket 3.4 02:29:00 10° NNW 02:34:13 76° WSW 02:39:21 10° SSE
Cosmos 1805 Rocket 4.1 02:30:11 10° N 02:34:35 62° ENE 02:38:54 10° SSE
Cosmos 2360 Rocket 3.4 02:31:59 10° NW 02:36:11 22° W 02:40:23 10° SSW
SL-19 R/B 4.5 02:31:16 10° NNE 02:36:50 62° WNW 02:42:40 10° SW
Cosmos 2333 Rocket 3.9 02:34:39 10° WNW 02:37:04 13° W 02:39:00 11° WSW
Alouette 2 Rocket 4.2 02:34:17 10° NNW 02:37:49 28° W 02:40:54 10° SSW
USA 305 2.5 02:39:22 10° NW 02:40:32 16° N 02:41:16 10° NE
Meteor 1-18 Rocket 4.2 02:37:15 10° S 02:42:49 89° E 02:48:24 10° NNE
Meteor 2-10 Rocket 3.6 02:38:31 10° NNW 02:43:31 58° W 02:48:40 10° S
H-2A R/B 2.2 02:40:39 10° NNE 02:44:41 68° ESE 02:48:38 10° S
Cosmos 540 Rocket 4.5 02:41:19 11° WSW 02:45:45 32° NW 02:50:22 10° N
Cosmos 2082 Rocket 4.4 02:44:06 10° WNW 02:47:22 15° NNW 02:50:39 10° N
Resurs 1-4 Rocket 2.9 02:43:22 10° N 02:48:08 35° WNW 02:52:53 10° SW
Cosmos 1553 Rocket 4.0 02:42:05 10° SSW 02:48:16 72° WNW 02:54:35 10° N
In-Cosmos 22 4.3 02:43:54 10° S 02:49:11 78° E 02:54:36 10° NNE
USA 276 2.8 02:50:08 11° SSW 02:50:19 12° SSW 02:51:00 10° S
Cosmos 2322 Rocket 3.7 02:48:06 10° WNW 02:51:14 15° W 02:54:24 10° SW
BREEZE-M DEB (TANK) 3.9 02:50:46 10° W 02:54:01 55° SSW 03:04:30 10° ESE
Cosmos 1709 Rocket 4.3 02:49:41 10° N 02:55:49 75° ENE 03:01:56 10° SSE
CZ-2C R/B 3.2 02:51:12 10° NNE 02:56:00 53° E 03:00:37 10° S
Cosmos 1340 Rocket 3.7 02:52:49 10° N 02:56:28 50° ENE 03:00:09 10° SSE
H-2A R/B 2.8 02:57:44 10° N 03:02:22 36° WNW 03:07:05 10° SW
Cosmos 2219 Rocket 3.4 03:01:23 10° NW 03:05:25 21° W 03:09:27 10° SSW
Cosmos 2237 Rocket 2.6 03:00:27 10° NNW 03:06:11 75° ENE 03:11:51 10° SE
Cosmos 44 3.7 03:02:12 10° NW 03:07:40 87° NE 03:12:59 10° SE
Cosmos 1980 3.9 03:02:20 10° NNW 03:08:02 81° ENE 03:13:41 10° SSE
